Weather Service Report


608 
ASUS41 KBOX 221010
RWRBOX

REGIONAL WEATHER ROUNDUP
NATIONAL WEATHER SERVICE TAUNTON MA
500 AM EST WED NOV 22 2017

NOTE:  "FAIR" INDICATES FEW OR NO CLOUDS BELOW 12,000 FEET WITH NO 
SIGNIFICANT WEATHER AND/OR OBSTRUCTIONS TO VISIBILITY.

MAZALL-221100-
EASTERN MASSACHUSETTS
  
CITY           SKY/WX    TMP DP  RH WIND       PRES   REMARKS
BOSTON         CLOUDY    49  46  90 S7        29.99F                  
BEVERLY        CLOUDY    50  44  80 S6        29.98F                  
LAWRENCE       CLOUDY    51  41  68 S5        29.99F                  
BEDFORD        CLOUDY    50  42  74 S6        29.97F                  
BLUE HILL        N/A     51  45  79 S15G23    29.98F                  
NORWOOD        CLOUDY    45  42  89 CALM      29.99F                  
MARSHFIELD     DRIZZLE   52  52 100 SE3       30.01S                  
PLYMOUTH       LGT RAIN  55  52  89 S3        30.01F                  
TAUNTON        LGT RAIN  53  52  96 CALM      30.00F                  
NEW BEDFORD    LGT RAIN  54  52  93 SE3       30.00F                  
$$

MAZALL-221100-
CAPE COD AND THE ISLANDS
  
CITY           SKY/WX    TMP DP  RH WIND       PRES   REMARKS
FALMOUTH       CLOUDY    54  52  94 S6        30.02F                  
HYANNIS        LGT RAIN  52  51  97 S3        30.01F                  
CHATHAM        CLOUDY    56  53  90 SW6       30.04F                  
PROVINCETOWN   CLOUDY    55  52  89 S7        30.02F                  
NANTUCKET      CLOUDY    55  53  93 S14       30.02F                  
MARTHAS VNYRD  CLOUDY    57  54  89 SW6       30.01F                  
$$
 
MAZALL-221100-
CENTRAL AND WESTERN MASSACHUSETTS
  
CITY           SKY/WX    TMP DP  RH WIND       PRES   REMARKS
WORCESTER      CLOUDY    45  38  76 S6        29.96F                  
FITCHBURG      CLOUDY    40  37  89 CALM      29.97F                  
ORANGE         CLOUDY    32  32 100 CALM      29.95F                  
SPRINGFIELD    CLOUDY    36  34  93 CALM      29.94F                  
WESTFIELD      CLOUDY    38  37  97 CALM      29.95F                  
NORTH ADAMS    CLOUDY    33  30  88 CALM      29.93F                  
PITTSFIELD     CLOUDY    38  32  79 CALM      29.91F                  
$$
 
RIZALL-221100-
RHODE ISLAND
  
CITY           SKY/WX    TMP DP  RH WIND       PRES   REMARKS
PROVIDENCE     LGT RAIN  51  51 100 S5        29.99F                  
NEWPORT        CLOUDY    55  54  96 SE6       29.99F                  
BLOCK ISLAND   MOCLDY    58  54  86 S7        29.98F                  
SMITHFIELD     LGT RAIN  49  47  93 CALM      29.98F                  
WESTERLY       LGT RAIN  55  55 100 CALM      29.98F                  
$$
 
CTZALL-221100-
CONNECTICUT
  
CITY           SKY/WX    TMP DP  RH WIND       PRES   REMARKS
BRADLEY INTL   CLOUDY    39  37  92 CALM      29.95F                  
HARTFORD       CLOUDY    45  41  86 CALM      29.95F                  
BRIDGEPORT     CLOUDY    50  46  86 CALM      29.95F                  
DANBURY        CLOUDY    41  38  89 CALM      29.95F                  
GROTON         RAIN      54  53  97 CALM      29.96F FOG              
NEW HAVEN      CLOUDY    52  48  86 CALM      29.95F                  
CHESTER        DRIZZLE   52  48  87 CALM      29.95F                  
MERIDEN        CLOUDY    40  39  97 CALM      29.95F                  
WILLIMANTIC    LGT RAIN  44  40  85 NE3       29.97F                  
OXFORD         CLOUDY    47  42  83 CALM      29.95F                  
$$

MEZ002-015-021-024-NHZ003-005-008-011-012-014-VTZ005-008-221100-
NORTHERN NEW ENGLAND
  
CITY           SKY/WX    TMP DP  RH WIND       PRES   REMARKS
PORTLAND ME    CLOUDY    36  33  89 SE3       29.98F                  
BANGOR ME      CLOUDY    37  34  89 CALM      29.98R                  
CONCORD NH     CLOUDY    29  27  92 CALM      29.98R                  
MANCHESTER NH  CLOUDY    38  34  85 CALM      29.96S                  
NASHUA NH      CLOUDY    34  33  96 CALM      29.98S                  
PORTSMOUTH NH  CLOUDY    38  36  89 CALM      29.97S                  
JAFFREY NH     CLOUDY    33  33 100 CALM      29.95F                  
KEENE NH       CLOUDY    30  28  92 CALM      29.96F                  
BURLINGTON VT  CLOUDY    48  28  46 S12       29.88S                  
MT. WASHINGTON PTCLDY    25  19  80 W40         N/A  WCI   6          
$$

NYZ052-076-221100-
EASTERN NEW YORK
  
CITY           SKY/WX    TMP DP  RH WIND       PRES   REMARKS
ALBANY         CLOUDY    43  32  65 S6        29.91F                  
NEW YORK CITY  CLOUDY    53  45  74 S5        29.93F                  
$$
 
ANZALL-221100-
MARINE OBSERVATIONS
  
STATION/POSITION TIME  TEMP    WIND        PRES    VSBY  WAVE
                       AIR SEA DIR/SP/G                  HT/PER
                 (UTC) (F)     (DEG/KT/KT) (MB)    (MI)  (FT/S)
BOSTON BUOY      0950   53 50  170/ 10/ 12 1014.8F         1/ 2
BUZZARDS BAY     0900   57     230/  7/  8 1016.9S
NANTUCKET SOUND  0950   54 50  180/ 16/ 19 1016.0F         2/ 3
MASS BAY-STELLWA 0904   52 49  170/ 14/ 14 1015.1R         2/ 4
ISLE OF SHOALS   0900   50     200/ 17/ 19 1014.8F
S OF BLOCK IS    NOT AVBL
$$

......................KEY.........................
  SKY/WX - SKY CONDITION/PRESENT WEATHER
  TMP    - TEMPERATURE IN FAHRENHEIT
  DWPT   - DEWPOINT IN FAHRENHEIT
  RH     - RELATIVE HUMIDITY IN PERCENT
  WIND   - DIRECTION AND SPEED IN MPH
  PRES   - MEAN SEA LEVEL PRESSURE IN INCHES OF HG
  WCI    - WIND CHILL INDEX
  VSB    - VISIBILITY IN MILES
  HX     - HEAT INDEX
  TC     - TEMPERATURE IN CELSIUS
  VRB    - VARIABLE WIND DIRECTION
  N/A    - NOT AVAILABLE
  

Return to Home page


Western Regional Climate Center, wrcc@dri.edu